FW2998 Weather Reports


time (UTC)temp
C
wind
direction
speed
KPH
gust
KPH
rain 1hr
cm
rain 24hr
cm
rain mn
cm
humidity
%
barometer
mb
20260903160045 32 0 0.0 0.0 0.00 0.00 0.00 64 1018.6
20260903155526 32 0 0.0 0.0 0.00 0.00 0.00 63 1018.7
20260903155027 32 0 0.0 0.0 0.00 0.00 0.00 64 1018.6
20260903154605 32 0 0.0 0.0 0.00 0.00 0.00 64 1018.7
20260903154024 32 0 0.0 0.0 0.00 0.00 0.00 65 1018.6
20260903153524 32 0 0.0 0.0 0.00 0.00 0.00 64 1018.6
20260903153044 32 0 0.0 0.0 0.00 0.00 0.00 63 1018.7
20260903152525 33 0 0.0 0.0 0.00 0.00 0.00 61 1018.7
20260903152023 34 0 0.0 0.0 0.00 0.00 0.00 61 1018.7
20260903151551 34 0 0.0 0.0 0.00 0.00 0.00 60 1018.8
20260903151025 34 0 0.0 0.0 0.00 0.00 0.00 63 1018.8
20260903150524 34 0 0.0 0.0 0.00 0.00 0.00 62 1018.6
20260903150043 33 0 0.0 0.0 0.00 0.00 0.00 63 1018.6
20260903145526 33 0 0.0 0.0 0.00 0.00 0.00 63 1018.6
20260903145024 33 0 0.0 0.0 0.00 0.00 0.00 64 1018.6
20260903144545 33 0 0.0 0.0 0.00 0.00 0.00 65 1018.6
20260903144029 32 0 0.0 0.0 0.00 0.00 0.00 66 1018.6
20260903143522 32 0 0.0 0.0 0.00 0.00 0.00 64 1018.6
20260903143102 32 0 0.0 0.0 0.00 0.00 0.00 63 1018.6
20260903142527 32 0 0.0 0.0 0.00 0.00 0.00 63 1018.7
20260903142026 32 0 0.0 0.0 0.00 0.00 0.00 64 1018.6
20260903141557 32 0 0.0 0.0 0.00 0.00 0.00 67 1018.6
20260903141030 31 0 0.0 0.0 0.00 0.00 0.00 66 1018.7
20260903140524 31 0 0.0 0.0 0.00 0.00 0.00 68 1018.7
20260903140046 31 0 0.0 0.0 0.00 0.00 0.00 67 1018.6
20260903135525 31 0 0.0 0.0 0.00 0.00 0.00 70 1018.5
20260903135028 30 0 0.0 0.0 0.00 0.00 0.00 71 1018.6
20260903134542 30 0 0.0 0.0 0.00 0.00 0.00 75 1018.6
20260903134025 30 0 0.0 0.0 0.00 0.00 0.00 78 1018.6
20260903133524 28 0 0.0 0.0 0.00 0.00 0.00 79 1018.6
20260903133046 28 0 0.0 0.0 0.00 0.00 0.00 80 1018.8
20260903132525 28 0 0.0 0.0 0.00 0.00 0.00 83 1018.7
20260903132024 27 0 0.0 0.0 0.00 0.00 0.00 85 1018.7
20260903131546 27 0 0.0 0.0 0.00 0.00 0.00 86 1018.8
20260903131023 26 0 0.0 0.0 0.00 0.00 0.00 89 1018.7
20260903130523 26 0 0.0 0.0 0.00 0.00 0.00 91 1018.7
20260903130043 26 0 0.0 0.0 0.00 0.00 0.00 94 1018.7
20260903125525 25 0 0.0 0.0 0.00 0.00 0.00 94 1018.8
20260903125025 25 0 0.0 0.0 0.00 0.00 0.00 94 1018.8
20260903124547 25 0 0.0 0.0 0.00 0.00 0.00 94 1018.8
20260903124018 25 0 0.0 0.0 0.00 0.00 0.00 94 1018.9
20260903123519 25 0 0.0 0.0 0.00 0.00 0.00 94 1018.9
20260903123044 24 0 0.0 0.0 0.00 0.00 0.00 94 1019.0
20260903122521 24 0 0.0 0.0 0.00 0.00 0.00 94 1018.9
20260903122019 23 0 0.0 0.0 0.00 0.00 0.00 93 1018.8
20260903121544 23 0 0.0 0.0 0.00 0.00 0.00 93 1018.9
20260903121025 23 0 0.0 0.0 0.00 0.00 0.00 92 1018.8
20260903120525 23 0 0.0 0.0 0.00 0.00 0.00 92 1018.8
20260903120044 23 0 0.0 0.0 0.00 0.00 0.00 92 1018.8
20260903115524 23 0 0.0 0.0 0.00 0.00 0.00 92 1018.7
20260903115024 23 0 0.0 0.0 0.00 0.00 0.00 91 1018.8
20260903114546 23 0 0.0 0.0 0.00 0.00 0.00 91 1018.6
20260903114023 23 0 0.0 0.0 0.00 0.00 0.00 91 1018.7
20260903113524 23 0 0.0 0.0 0.00 0.00 0.00 90 1018.6
20260903113044 23 0 0.0 0.0 0.00 0.00 0.00 90 1018.5
20260903112520 23 0 0.0 0.0 0.00 0.00 0.00 90 1018.5
20260903112027 23 0 0.0 0.0 0.00 0.00 0.00 90 1018.5
20260903111543 23 0 0.0 0.0 0.00 0.00 0.00 90 1018.4
20260903111023 23 0 0.0 0.0 0.00 0.00 0.00 90 1018.5
20260903110526 23 0 0.0 0.0 0.00 0.00 0.00 90 1018.4
20260903110052 23 0 0.0 0.0 0.00 0.00 0.00 90 1018.3
20260903105525 23 0 0.0 0.0 0.00 0.00 0.00 90 1018.3
20260903105023 23 0 0.0 0.0 0.00 0.00 0.00 90 1018.2
20260903104547 23 0 0.0 0.0 0.00 0.00 0.00 90 1018.2
20260903104022 23 0 0.0 0.0 0.00 0.00 0.00 90 1018.2
20260903103521 23 0 0.0 0.0 0.00 0.00 0.00 89 1018.1
20260903103050 23 0 0.0 0.0 0.00 0.00 0.00 89 1018.1
20260903102522 23 0 0.0 0.0 0.00 0.00 0.00 89 1018.1
20260903102027 23 0 0.0 0.0 0.00 0.00 0.00 89 1018.0
20260903101543 23 0 0.0 0.0 0.00 0.00 0.00 88 1017.9
20260903101025 23 0 0.0 0.0 0.00 0.00 0.00 88 1017.9
20260903100526 23 0 0.0 0.0 0.00 0.00 0.00 88 1018.0
20260903100043 23 0 0.0 0.0 0.00 0.00 0.00 88 1018.0
20260903095524 23 0 0.0 0.0 0.00 0.00 0.00 88 1018.0
20260903095018 23 0 0.0 0.0 0.00 0.00 0.00 88 1017.9
20260903094544 23 0 0.0 0.0 0.00 0.00 0.00 88 1017.9
20260903094033 23 0 0.0 0.0 0.00 0.00 0.00 88 1018.0
20260903093522 23 0 0.0 0.0 0.00 0.00 0.00 88 1018.0
20260903093102 23 0 0.0 0.0 0.00 0.00 0.00 88 1017.9
20260903092529 23 0 0.0 0.0 0.00 0.00 0.00 88 1017.9
20260903092025 24 0 0.0 0.0 0.00 0.00 0.00 88 1017.8
20260903091543 24 0 0.0 0.0 0.00 0.00 0.00 88 1017.8
20260903091024 24 0 0.0 0.0 0.00 0.00 0.00 87 1017.9
20260903090524 24 0 0.0 0.0 0.00 0.00 0.00 87 1017.9
20260903090051 24 0 0.0 0.0 0.00 0.00 0.00 87 1017.9
20260903085523 24 0 0.0 0.0 0.00 0.00 0.00 87 1017.9
20260903085022 24 0 0.0 0.0 0.00 0.00 0.00 86 1017.8
20260903084543 24 0 0.0 0.0 0.00 0.00 0.00 86 1017.8
20260903084026 24 0 0.0 0.0 0.00 0.00 0.00 86 1017.8
20260903083529 24 0 0.0 0.0 0.00 0.00 0.00 86 1017.9
20260903083044 24 0 0.0 0.0 0.00 0.00 0.00 86 1017.8
20260903082526 24 0 0.0 0.0 0.00 0.00 0.00 86 1017.8
20260903082025 24 0 0.0 0.0 0.00 0.00 0.00 86 1017.8
20260903081544 24 0 0.0 0.0 0.00 0.00 0.00 86 1017.7
20260903081023 25 0 0.0 0.0 0.00 0.00 0.00 86 1017.7
20260903080524 25 0 0.0 0.0 0.00 0.00 0.00 86 1017.7
20260903080047 25 0 0.0 0.0 0.00 0.00 0.00 86 1017.6
20260903075525 25 0 0.0 0.0 0.00 0.00 0.00 86 1017.6
20260903075024 25 0 0.0 0.0 0.00 0.00 0.00 86 1017.6
20260903074543 25 0 0.0 0.0 0.00 0.00 0.00 86 1017.4
20260903074028 25 0 0.0 0.0 0.00 0.00 0.00 86 1017.4
20260903073525 25 0 0.0 0.0 0.00 0.00 0.00 86 1017.4
20260903073043 25 0 0.0 0.0 0.00 0.00 0.00 86 1017.4
20260903072522 25 0 0.0 0.0 0.00 0.00 0.00 86 1017.3
20260903072029 25 0 0.0 0.0 0.00 0.00 0.00 86 1017.3
20260903071544 25 0 0.0 0.0 0.00 0.00 0.00 86 1017.2
20260903071023 25 0 0.0 0.0 0.00 0.00 0.00 86 1017.3
20260903070523 25 0 0.0 0.0 0.00 0.00 0.00 85 1017.3
20260903070057 25 0 0.0 0.0 0.00 0.00 0.00 85 1017.3
20260903065525 25 0 0.0 0.0 0.00 0.00 0.00 85 1017.1
20260903065025 25 0 0.0 0.0 0.00 0.00 0.00 85 1017.2
20260903064542 25 0 0.0 0.0 0.00 0.00 0.00 85 1017.3
20260903064024 26 0 0.0 0.0 0.00 0.00 0.00 85 1017.4
20260903063521 26 0 0.0 0.0 0.00 0.00 0.00 85 1017.4
20260903063108 26 0 0.0 0.0 0.00 0.00 0.00 85 1017.4
20260903062521 26 0 0.0 0.0 0.00 0.00 0.00 85 1017.3
20260903062020 26 0 0.0 0.0 0.00 0.00 0.00 85 1017.3
20260903061543 26 0 0.0 0.0 0.00 0.00 0.00 84 1017.4
20260903061024 26 0 0.0 0.0 0.00 0.00 0.00 84 1017.5
20260903060528 26 0 0.0 0.0 0.00 0.00 0.00 84 1017.4
20260903060045 26 0 0.0 0.0 0.00 0.00 0.00 84 1017.3
20260903055522 26 0 0.0 0.0 0.00 0.00 0.00 85 1017.4
20260903055024 26 0 0.0 0.0 0.00 0.00 0.00 85 1017.4
20260903054545 26 0 0.0 0.0 0.00 0.00 0.00 85 1017.4
20260903054018 26 0 0.0 0.0 0.00 0.00 0.00 85 1017.4
20260903053520 26 0 0.0 0.0 0.00 0.00 0.00 84 1017.4
20260903053043 26 0 0.0 0.0 0.00 0.00 0.00 84 1017.3
20260903052525 26 0 0.0 0.0 0.00 0.00 0.00 84 1017.3
20260903052024 26 0 0.0 0.0 0.00 0.00 0.00 84 1017.4
20260903051548 26 0 0.0 0.0 0.00 0.00 0.00 84 1017.5
20260903051024 26 0 0.0 0.0 0.00 0.00 0.00 83 1017.5
20260903050525 26 0 0.0 0.0 0.00 0.00 0.00 83 1017.5
20260903050110 26 0 0.0 0.0 0.00 0.00 0.00 83 1017.6
20260903045520 26 0 0.0 0.0 0.00 0.00 0.00 82 1017.7
20260903045021 26 0 0.0 0.0 0.00 0.00 0.00 82 1017.8
20260903044543 26 0 0.0 0.0 0.00 0.00 0.00 82 1017.9
20260903044025 27 0 0.0 0.0 0.00 0.00 0.00 82 1017.9
20260903043525 27 0 0.0 0.0 0.00 0.00 0.00 81 1017.9
20260903043043 27 0 0.0 0.0 0.00 0.00 0.00 81 1017.9
20260903042524 27 0 0.0 0.0 0.00 0.00 0.00 81 1017.9
20260903042024 27 0 0.0 0.0 0.00 0.00 0.00 81 1017.8
20260903041545 27 0 0.0 0.0 0.00 0.00 0.00 80 1017.9
20260903041019 27 0 0.0 0.0 0.00 0.00 0.00 80 1017.9
20260903040519 27 0 0.0 0.0 0.00 0.00 0.00 80 1018.0
20260903040054 27 0 0.0 0.0 0.00 0.00 0.00 79 1018.0
20260903035525 27 0 0.0 0.0 0.00 0.00 0.00 79 1018.0
20260903035025 27 0 0.0 0.0 0.00 0.00 0.00 79 1018.0
20260903034542 27 0 0.0 0.0 0.00 0.00 0.00 79 1018.1
20260903034024 27 0 0.0 0.0 0.00 0.00 0.00 79 1018.1
20260903033525 27 0 0.0 0.0 0.00 0.00 0.00 79 1018.2
20260903033046 27 0 0.0 0.0 0.00 0.00 0.00 79 1018.2
20260903032526 27 0 0.0 0.0 0.00 0.00 0.00 79 1018.2
20260903032023 27 0 0.0 0.0 0.00 0.00 0.00 78 1018.2
20260903031543 27 0 0.0 0.0 0.00 0.00 0.00 78 1018.2
20260903031021 27 0 0.0 0.0 0.00 0.00 0.00 78 1018.2
20260903030521 28 0 0.0 0.0 0.00 0.00 0.00 78 1018.2
20260903030043 28 0 0.0 0.0 0.00 0.00 0.00 78 1018.3
20260903025521 28 0 0.0 0.0 0.00 0.00 0.00 77 1018.3
20260903025023 28 0 0.0 0.0 0.00 0.00 0.00 77 1018.4
20260903024544 28 0 0.0 0.0 0.00 0.00 0.00 77 1018.4
20260903024024 28 0 0.0 0.0 0.00 0.00 0.00 77 1018.2
20260903023525 28 0 0.0 0.0 0.00 0.00 0.00 77 1018.2
20260903023045 28 0 0.0 0.0 0.00 0.00 0.00 76 1018.2
20260903022524 28 0 0.0 0.0 0.00 0.00 0.00 76 1018.3
20260903022021 28 0 0.0 0.0 0.00 0.00 0.00 76 1018.3
20260903021546 28 0 0.0 0.0 0.00 0.00 0.00 75 1018.2
20260903021019 28 0 0.0 0.0 0.00 0.00 0.00 75 1018.2
20260903020521 28 0 0.0 0.0 0.00 0.00 0.00 75 1018.2
20260903020050 28 0 0.0 0.0 0.00 0.00 0.00 75 1018.1
20260903015519 28 0 0.0 0.0 0.00 0.00 0.00 75 1018.1
20260903015020 29 0 0.0 0.0 0.00 0.00 0.00 75 1018.1
20260903014549 29 0 0.0 0.0 0.00 0.00 0.00 75 1018.1
20260903014022 29 0 0.0 0.0 0.00 0.00 0.00 74 1018.0
20260903013521 29 0 0.0 0.0 0.00 0.00 0.00 74 1018.0
20260903013044 29 0 0.0 0.0 0.00 0.00 0.00 74 1017.8
20260903012525 29 0 0.0 0.0 0.00 0.00 0.00 74 1017.7
20260903012027 29 0 0.0 0.0 0.00 0.00 0.00 74 1017.7
20260903011557 29 0 0.0 0.0 0.00 0.00 0.00 73 1017.5
20260903011019 30 0 0.0 0.0 0.00 0.00 0.00 73 1017.5
20260903010519 30 0 0.0 0.0 0.00 0.00 0.00 73 1017.4
20260903010043 30 0 0.0 0.0 0.00 0.00 0.00 72 1017.4
20260903005520 30 0 0.0 0.0 0.00 0.00 0.00 72 1017.4
20260903005023 30 0 0.0 0.0 0.00 0.00 0.00 71 1017.4
20260903004543 30 0 0.0 0.0 0.00 0.00 0.00 71 1017.3
20260903004026 30 0 0.0 0.0 0.00 0.00 0.00 71 1017.1
20260903003520 30 0 0.0 0.0 0.00 0.00 0.00 70 1017.1
20260903003043 30 0 0.0 0.0 0.00 0.00 0.00 69 1017.0
20260903002521 31 0 0.0 0.0 0.00 0.00 0.00 69 1017.0
20260903002024 31 0 0.0 0.0 0.00 0.00 0.00 69 1016.9
20260903001544 31 0 0.0 0.0 0.00 0.00 0.00 69 1016.8
20260903001022 31 0 0.0 0.0 0.00 0.00 0.00 68 1016.8
20260903000524 31 0 0.0 0.0 0.00 0.00 0.00 67 1016.8
20260903000043 31 0 0.0 0.0 0.00 0.00 0.00 67 1016.8
20260902235525 32 0 0.0 0.0 0.00 0.00 0.00 66 1016.8
20260902235023 32 0 0.0 0.0 0.00 0.00 0.00 66 1016.7
20260902234546 32 0 0.0 0.0 0.00 0.00 0.00 65 1016.6
20260902234025 32 0 0.0 0.0 0.00 0.00 0.00 64 1016.5
20260902233526 32 0 0.0 0.0 0.00 0.00 0.00 64 1016.6
20260902233051 32 0 0.0 0.0 0.00 0.00 0.00 64 1016.6
20260902232523 32 0 0.0 0.0 0.00 0.00 0.00 63 1016.6
20260902232023 33 0 0.0 0.0 0.00 0.00 0.00 63 1016.4
20260902231554 33 0 0.0 0.0 0.00 0.00 0.00 63 1016.5
20260902231021 33 0 0.0 0.0 0.00 0.00 0.00 63 1016.5
20260902230524 33 0 0.0 0.0 0.00 0.00 0.00 62 1016.5
20260902230041 33 0 0.0 0.0 0.00 0.00 0.00 62 1016.5
20260902225521 33 0 0.0 0.0 0.00 0.00 0.00 63 1016.5
20260902225024 34 0 0.0 0.0 0.00 0.00 0.00 61 1016.5
20260902224552 34 0 0.0 0.0 0.00 0.00 0.00 61 1016.5
20260902224023 34 0 0.0 0.0 0.00 0.00 0.00 61 1016.5
20260902223525 34 0 0.0 0.0 0.00 0.00 0.00 60 1016.6
20260902223044 35 0 0.0 0.0 0.00 0.00 0.00 59 1016.6
20260902222523 35 0 0.0 0.0 0.00 0.00 0.00 60 1016.5
20260902222024 35 0 0.0 0.0 0.00 0.00 0.00 58 1016.4
20260902221549 35 0 0.0 0.0 0.00 0.00 0.00 57 1016.5
20260902221027 35 0 0.0 0.0 0.00 0.00 0.00 57 1016.5
20260902220523 35 0 0.0 0.0 0.00 0.00 0.00 59 1016.4
20260902220045 35 0 0.0 0.0 0.00 0.00 0.00 58 1016.5
20260902215522 35 0 0.0 0.0 0.00 0.00 0.00 57 1016.5
20260902215025 35 0 0.0 0.0 0.00 0.00 0.00 57 1016.6
20260902214544 35 0 0.0 0.0 0.00 0.00 0.00 58 1016.6
20260902214024 35 0 0.0 0.0 0.00 0.00 0.00 58 1016.5
20260902213523 35 0 0.0 0.0 0.00 0.00 0.00 56 1016.6
20260902213052 35 0 0.0 0.0 0.00 0.00 0.00 56 1016.6
20260902212527 35 0 0.0 0.0 0.00 0.00 0.00 55 1016.6
20260902212021 36 0 0.0 0.0 0.00 0.00 0.00 50 1016.6
20260902211604 35 0 0.0 0.0 0.00 0.00 0.00 51 1016.5
20260902211028 35 0 0.0 0.0 0.00 0.00 0.00 52 1016.5
20260902210525 35 0 0.0 0.0 0.00 0.00 0.00 53 1016.6
20260902210046 35 0 0.0 0.0 0.00 0.00 0.00 56 1016.6
20260902205525 35 0 0.0 0.0 0.00 0.00 0.00 51 1016.7
20260902205021 36 0 0.0 0.0 0.00 0.00 0.00 49 1016.6
20260902204545 35 0 0.0 0.0 0.00 0.00 0.00 53 1016.6
20260902204020 35 0 0.0 0.0 0.00 0.00 0.00 52 1016.6
20260902203525 36 0 0.0 0.0 0.00 0.00 0.00 53 1016.7
20260902203043 35 0 0.0 0.0 0.00 0.00 0.00 55 1016.8
20260902202524 35 0 0.0 0.0 0.00 0.00 0.00 53 1016.8
20260902202024 36 0 0.0 0.0 0.00 0.00 0.00 54 1017.1
20260902201545 36 0 0.0 0.0 0.00 0.00 0.00 53 1017.0
20260902201025 35 0 0.0 0.0 0.00 0.00 0.00 53 1017.3
20260902200525 35 0 0.0 0.0 0.00 0.00 0.00 54 1017.3
20260902200046 35 0 0.0 0.0 0.00 0.00 0.00 55 1017.3
20260902195525 35 0 0.0 0.0 0.00 0.00 0.00 53 1017.3
20260902195022 35 0 0.0 0.0 0.00 0.00 0.00 55 1017.3
20260902194543 35 0 0.0 0.0 0.00 0.00 0.00 56 1017.3
20260902194026 35 0 0.0 0.0 0.00 0.00 0.00 57 1017.4
20260902193524 35 0 0.0 0.0 0.00 0.00 0.00 56 1017.4
20260902193048 35 0 0.0 0.0 0.00 0.00 0.00 53 1017.4
20260902192518 35 0 0.0 0.0 0.00 0.00 0.00 55 1017.4
20260902192024 36 0 0.0 0.0 0.00 0.00 0.00 53 1017.4
20260902191544 35 0 0.0 0.0 0.00 0.00 0.00 56 1017.5
20260902191026 35 0 0.0 0.0 0.00 0.00 0.00 53 1017.6
20260902190525 35 0 0.0 0.0 0.00 0.00 0.00 52 1017.6
20260902190044 36 0 0.0 0.0 0.00 0.00 0.00 56 1017.7
20260902185524 35 0 0.0 0.0 0.00 0.00 0.00 56 1017.8
20260902185023 35 0 0.0 0.0 0.00 0.00 0.00 54 1017.8
20260902184553 35 0 0.0 0.0 0.00 0.00 0.00 55 1017.9
20260902184023 35 0 0.0 0.0 0.00 0.00 0.00 55 1018.0
20260902183524 35 0 0.0 0.0 0.00 0.00 0.00 56 1018.0
20260902183048 35 0 0.0 0.0 0.00 0.00 0.00 54 1018.1
20260902182526 35 0 0.0 0.0 0.00 0.00 0.00 56 1018.1
20260902182025 35 0 0.0 0.0 0.00 0.00 0.00 54 1018.1
20260902181545 34 0 0.0 0.0 0.00 0.00 0.00 58 1018.1
20260902181025 34 0 0.0 0.0 0.00 0.00 0.00 61 1018.2
20260902180523 34 0 0.0 0.0 0.00 0.00 0.00 57 1018.2
20260902175526 34 0 0.0 0.0 0.00 0.00 0.00 57 1018.2
20260902175023 35 0 0.0 0.0 0.00 0.00 0.00 58 1018.3
20260902174544 35 0 0.0 0.0 0.00 0.00 0.00 57 1018.4
20260902174023 35 0 0.0 0.0 0.00 0.00 0.00 54 1018.4
20260902173526 35 0 0.0 0.0 0.00 0.00 0.00 55 1018.4
20260902173044 35 0 0.0 0.0 0.00 0.00 0.00 58 1018.4
20260902172522 35 0 0.0 0.0 0.00 0.00 0.00 53 1018.5
20260902172025 35 0 0.0 0.0 0.00 0.00 0.00 53 1018.6
20260902171548 34 0 0.0 0.0 0.00 0.00 0.00 58 1018.5
20260902171024 34 0 0.0 0.0 0.00 0.00 0.00 57 1018.5
20260902170523 34 0 0.0 0.0 0.00 0.00 0.00 60 1018.7
20260902170043 33 0 0.0 0.0 0.00 0.00 0.00 59 1018.7
20260902165524 33 0 0.0 0.0 0.00 0.00 0.00 59 1018.8
20260902165019 33 0 0.0 0.0 0.00 0.00 0.00 60 1018.9
20260902164544 33 0 0.0 0.0 0.00 0.00 0.00 60 1019.0
20260902164024 33 0 0.0 0.0 0.00 0.00 0.00 62 1019.0
20260902163524 33 0 0.0 0.0 0.00 0.00 0.00 65 1019.0
20260902163047 33 0 0.0 0.0 0.00 0.00 0.00 64 1018.9
20260902162522 33 0 0.0 0.0 0.00 0.00 0.00 62 1019.1
20260902162024 33 0 0.0 0.0 0.00 0.00 0.00 62 1019.1
20260902161552 33 0 0.0 0.0 0.00 0.00 0.00 65 1019.1
20260902161024 33 0 0.0 0.0 0.00 0.00 0.00 61 1019.0
20260902160523 33 0 0.0 0.0 0.00 0.00 0.00 63 1019.1